Location: Majestic Skies Ranch
(34.0000°N, 105.9300°W)
Time: 20:15:00
(UTC-06:00)

ISS - Visible Passes

Search period start: 23 March 2017 00:00
Search period end: 02 April 2017 00:00
Orbit: 399 x 409 km, 51.6° (Epoch: 24 March)

Date Brightness Start Highest point End Pass type
(mag) Time Alt. Az. Time Alt. Az. Time Alt. Az.
23 Mar -2.2 05:13:36 31° NNE 05:14:05 33° NE 05:17:06 10° ESE visible
24 Mar -3.3 05:57:03 28° W 05:58:10 38° SW 06:01:15 10° SSE visible
24 Mar -1.1 20:55:47 10° SSW 20:55:52 11° SSW 20:55:52 11° SSW visible
25 Mar -1.6 05:08:03 20° SE 05:08:03 20° SE 05:09:10 10° SE visible
25 Mar -2.2 20:04:24 10° S 20:06:34 17° SE 20:07:12 16° ESE visible
25 Mar -0.5 21:39:50 10° WSW 21:39:57 11° WSW 21:39:57 11° WSW visible
26 Mar -3.7 20:47:10 10° SW 20:50:24 73° NW 20:51:05 50° NNE visible
27 Mar -3.6 19:54:56 10° SSW 19:58:03 48° SE 20:01:13 10° ENE visible
27 Mar -1.0 21:32:35 10° WNW 21:34:41 16° NNW 21:34:41 16° NNW visible
28 Mar -1.8 20:39:18 10° W 20:42:08 27° NW 20:44:59 10° NNE visible
29 Mar -3.1 19:46:27 10° WSW 19:49:38 55° NW 19:52:50 10° NE visible
30 Mar -0.9 20:32:13 10° WNW 20:33:58 14° NNW 20:35:45 10° N visible
